FENGYUN 1C DEB

Satellite information

Favourite Embed

Satellite Type and Status

DEBRISIN ORBIT

Key statistics

Satellite FENGYUN 1C DEB at a glance.

Uptime

9556

Days in orbit

Revolutions

≈ 14.1

Per day

Orbit

SSO

Sun Synchronous Orbit

Inclination

98.7

Latest

Satellite identification and parameters

Extended collection of information and parameters for FENGYUN 1C DEB.

Object identification

Identified? True

Debris? True

Object name: FENGYUN 1C DEB

International designator: 1999-025BAG

Object number (NORAD): 30942

Object ID (CCSDS): 30942

Country: PEOPLES REPUBLIC OF CHINA (PRC)

Current information (Y/N): Y

RCS size: SMALL

Orbital parameters

Period: 101.794 minutes

Inclination: 98.6727 deg

SMA: 7221.725 km

Apoapsis: 942.336 km

Periapsis: 744.845 km

RAAN: 187.6239 deg

Eccentricy: 0.0136734

Argument of periapsis: 208.6293 deg

Mean anomaly: 181.7049 deg

Mean motion: 14.14624898 rev/day

Mean motion (dot): 0.00000258 rev/day2

B* drag term: 0.00014337 1/REarth

Two-line elements (TLE)

Creation date: July 4, 2025, 3:20 a.m.

Reference frame: TEME

Reference center: EARTH

Epoch: July 3, 2025, 10:47 p.m. UTC

TLE line 0: 0 FENGYUN 1C DEB

TLE line 1: 1 30942U 99025BAG 25184.94950059 .00000258 00000-0 14337-3 0 9990

TLE line 2: 2 30942 98.6727 187.6239 0136734 208.6293 181.7049 14.14624898943574

Live tracking on map

Real-time ground track for satellite FENGYUN 1C DEB.

In-orbit conjunctions

A list of the most updated potential collisions computed for object FENGYUN 1C DEB.

Target Orbit TCA Probability of collision Miss distance Type
DELTA 1 DEB SSO 2024-11-09 11:31:40 0.0001818444 88.0 (m) DEBRIS
SL-16 DEB LEO 2024-08-21 20:14:24 0.0001988608 104.0 (m) DEBRIS
FENGYUN 1C DEB SSO 2024-06-23 15:12:16 0.0001349041 241.0 (m) DEBRIS

Associated space launch

Chinese polar orbiting meteorological satellite

FENGYUN 1C DEB was lifted into orbit during the mission ‘Long March 4B | Feng Yun 1C’, on board a Long March 4B space rocket.

The launch took place on May 10, 1999, 1:33 a.m. from Launch Complex 7.

For more information about the launch, click the button.

Launch to space Long March 4B | Feng Yun 1C
Long March 4B | Feng Yun 1C

Agency: N/A

Status: Launch Successful

Launch date: May 10, 1999, 1:33 a.m. UTC

Rocket: Long March 4B

Launch pad: Launch Complex 7

Location: Taiyuan Satellite Launch Center, People's Republic of China

...

Latest news about this satellite

There are no fresh news available about this satellite. Check back as we update our databases every day.


Newsletter sign-up

Weekly statistics, charts and insights to help you stay on top of the space industry.